Wind_Speed
26 26 27 27 28 29 27 25 24 24 25 25 25 25 24 24 24 24 23 21 20 19 19 18 18 17 17 16 16 15 15 15 14 14 14 13 13 13 13 12 11 10 10 10 9 8 8 7 6
28 29 29 30 30 29 27 26 26 26 26 26 26 26 26 26 26 25 24 23 22 21 21 20 20 19 18 18 18 17 17 16 16 15 15 14 14 14 13 13 12 11 11 11 10 9 9 8 7
30 31 32 33 32 31 28 27 27 28 28 28 27 28 28 28 27 26 25 25 24 23 22 22 21 20 19 19 18 18 18 18 17 17 16 15 15 15 14 14 14 13 12 11 11 11 10 9 9
32 33 34 35 34 31 31 31 30 31 30 30 29 30 30 29 28 27 27 27 26 25 24 23 22 22 21 20 20 19 19 19 18 17 17 17 16 16 15 15 15 14 13 13 12 12 11 11 10
34 35 36 37 35 33 33 33 33 33 33 32 32 32 32 31 30 30 30 29 28 27 26 26 25 24 23 22 21 21 21 20 19 18 18 18 17 17 16 16 16 15 14 14 14 13 13 12 12
36 38 39 38 36 35 35 36 35 36 35 35 34 34 34 32 32 32 31 31 30 29 29 28 27 26 25 24 23 23 22 22 21 20 19 18 18 18 17 17 16 16 15 15 15 14 15 14 14
38 39 40 39 38 38 38 38 37 37 38 38 37 37 36 34 34 34 34 33 32 31 30 30 29 28 27 26 25 25 24 23 23 22 21 20 19 19 18 18 17 17 17 16 16 16 16 16 15
41 42 42 42 41 40 40 40 40 39 40 39 40 40 38 36 35 36 36 35 34 33 32 32 31 30 29 28 27 27 26 25 25 24 23 22 21 20 20 19 19 19 18 18 17 17 17 17 17
43 44 44 43 43 42 42 43 42 42 42 42 42 42 40 38 37 37 37 37 36 36 35 34 33 32 31 30 29 29 28 27 27 26 25 25 24 23 22 21 20 20 19 19 18 17 17 18 18
44 46 45 44 44 45 44 45 44 44 45 44 43 43 42 41 39 39 38 38 38 37 36 36 35 33 32 31 31 31 30 29 28 28 27 27 26 25 24 23 22 21 20 20 19 18 18 18 19
44 45 45 45 45 46 46 47 46 46 46 46 45 44 43 41 41 41 40 39 39 39 38 37 36 35 34 33 32 32 31 31 30 30 29 29 28 27 26 25 25 23 22 21 20 20 20 20 20
42 43 44 44 45 46 48 48 48 47 48 47 47 45 45 43 42 42 41 41 41 40 40 39 38 37 36 34 33 33 32 31 31 31 31 30 29 28 28 27 26 25 24 24 23 22 21 21 21
40 40 41 42 43 45 47 49 49 49 49 49 48 46 46 45 44 43 43 42 41 41 41 40 40 39 38 36 36 35 33 32 32 32 32 32 31 30 29 29 27 27 26 25 25 23 23 22 22
38 39 40 41 42 43 45 47 48 48 49 49 49 48 46 46 45 45 44 43 42 42 42 42 41 41 40 39 38 37 35 34 34 34 33 33 33 32 31 30 29 29 28 27 26 25 25 24 23
35 37 40 41 42 42 44 45 46 47 47 48 48 48 47 46 46 46 45 44 43 43 43 43 43 42 42 41 40 39 38 36 36 36 35 34 34 33 33 32 31 30 29 28 27 26 26 26 25
34 35 37 38 41 42 44 45 44 45 46 47 47 47 47 46 46 46 46 45 44 44 44 44 44 44 43 43 42 41 40 39 37 37 36 35 35 34 34 33 32 32 31 29 29 28 27 27 26
32 34 35 37 38 40 42 43 43 44 45 46 46 47 47 46 46 46 46 46 45 45 45 45 45 45 45 45 44 43 41 40 39 38 37 36 37 36 35 34 33 33 32 31 31 30 29 28 28
32 33 35 36 37 38 40 41 42 43 44 45 46 47 47 46 47 46 46 45 45 46 46 46 45 45 45 46 45 44 43 42 41 39 38 37 37 37 37 35 34 34 33 33 33 32 31 30 29
31 32 34 35 36 38 39 39 40 41 43 44 45 46 47 46 47 47 47 46 46 46 46 46 46 46 46 46 46 45 45 44 44 43 41 39 39 38 38 38 37 36 35 34 34 33 33 32 31
31 32 33 34 35 38 39 39 39 39 42 43 43 45 46 47 47 48 48 47 46 46 46 46 46 46 47 47 46 46 46 46 45 44 44 43 42 41 41 40 39 38 37 36 35 34 34 34 33
30 31 32 33 34 36 38 39 39 40 41 43 42 44 45 46 47 48 48 48 47 48 47 48 47 47 47 47 47 46 46 46 46 45 45 45 44 43 42 42 41 40 39 38 37 37 36 35 34
26 28 29 31 32 34 35 37 37 39 40 41 42 43 44 45 46 47 47 48 48 48 48 48 48 47 47 47 47 46 46 46 46 45 46 46 45 44 44 43 43 42 41 40 39 39 38 37 36
23 24 26 28 31 33 33 34 34 36 38 40 41 42 42 43 45 46 47 48 48 48 49 49 49 48 47 47 47 47 46 46 46 46 46 46 46 45 45 44 44 43 42 41 41 40 40 39 38
21 21 22 25 28 29 29 32 33 34 35 36 39 40 41 42 43 45 46 47 48 48 49 49 49 49 48 48 48 48 47 46 46 47 47 47 47 47 46 46 45 44 43 42 42 41 41 40 39
19 19 20 22 24 26 26 28 31 30 32 34 37 38 39 41 42 43 44 46 47 47 48 49 49 49 48 48 48 48 48 47 47 47 47 48 47 47 47 47 46 45 44 44 43 42 42 41 41
18 18 19 21 22 23 23 25 26 27 29 32 35 36 37 38 40 41 43 44 46 47 48 49 50 49 49 49 48 48 48 48 48 48 47 48 48 47 46 47 46 45 45 45 44 44 43 43 43
17 17 18 19 20 21 22 23 26 27 28 29 32 34 35 37 39 40 42 43 44 46 48 49 49 49 50 49 49 49 49 50 50 49 48 48 49 49 48 48 47 46 46 46 46 45 45 44 44
19 18 18 18 19 20 21 22 23 25 26 27 30 33 34 36 38 39 41 42 44 45 46 47 48 49 49 49 49 49 50 50 51 50 50 50 51 50 50 50 49 48 47 46 46 46 46 46 45
19 19 19 20 20 21 22 22 22 23 25 27 28 31 33 35 37 39 41 42 43 44 45 46 47 48 48 49 50 50 50 50 50 51 51 51 52 52 52 51 50 50 49 48 48 47 47 46 45
19 19 20 20 20 21 22 24 24 24 25 27 29 30 31 34 35 37 39 41 42 44 45 46 46 47 48 49 49 50 51 51 50 50 51 51 51 51 52 51 50 50 50 49 48 48 48 48 47
Wind_Direction
252 250 249 248 248 248 249 249 249 246 244 241 239 238 237 237 237 238 237 235 234 234 234 234 234 234 233 233 233 233 232 231 230 228 226 226 226 225 226 227 228 228 227 227 227 229 232 232 233
253 251 250 249 248 249 249 249 248 246 244 241 239 238 238 237 237 238 239 237 235 234 235 234 234 235 234 234 234 233 233 234 233 231 230 229 229 230 229 230 231 232 231 231 231 234 238 239 241
254 252 251 250 250 251 252 250 249 245 243 242 240 238 238 238 238 239 240 239 236 235 234 234 234 234 235 234 234 233 234 235 236 235 233 232 231 232 232 232 231 232 233 234 234 235 239 242 244
255 254 252 251 251 252 252 250 249 246 244 243 242 240 239 239 239 239 240 240 237 235 235 234 234 234 234 234 234 233 233 234 235 235 236 235 234 233 232 232 233 233 233 236 238 238 241 244 246
257 255 254 253 252 251 250 250 248 247 245 244 243 242 241 239 239 239 239 240 239 236 235 234 235 235 234 234 234 234 233 234 236 236 237 237 236 235 236 235 234 234 236 238 241 243 245 248 249
257 256 255 254 253 251 250 249 247 246 245 244 243 243 242 240 239 238 239 239 238 237 235 235 235 235 235 235 235 235 235 235 236 237 237 236 237 237 237 237 236 237 239 241 243 246 248 250 251
258 256 255 255 254 250 248 248 247 246 246 245 244 243 243 241 239 239 238 238 237 237 236 236 235 235 236 236 236 236 236 237 237 237 237 238 238 238 238 238 239 240 241 245 247 249 251 251 252
259 257 255 253 253 251 249 248 247 246 246 245 244 243 242 242 240 239 238 238 237 236 236 236 236 236 237 237 237 237 237 238 238 239 239 240 240 239 239 239 242 244 245 246 248 251 253 253 254
258 256 254 253 253 252 249 247 246 246 245 244 244 244 242 242 240 239 238 238 238 237 236 237 237 237 237 237 238 238 238 239 240 240 241 242 242 241 241 241 243 246 247 247 248 251 254 255 255
257 256 255 254 252 251 249 247 245 245 244 243 243 243 242 241 240 239 238 238 238 237 237 237 237 237 237 238 239 239 240 240 241 241 242 242 242 242 243 244 246 247 248 248 249 251 254 256 257
258 257 255 252 250 250 248 246 244 243 244 243 242 242 242 241 240 238 237 237 237 237 237 237 237 237 237 237 239 240 241 241 242 242 242 242 242 242 243 245 247 248 249 250 251 253 256 258 259
258 257 254 252 250 249 247 246 245 243 243 244 243 242 241 239 239 237 236 236 237 237 237 237 237 237 237 238 239 241 241 242 242 242 242 242 242 242 243 244 246 247 249 250 251 254 256 258 260
258 256 253 252 251 250 248 247 245 244 243 243 243 241 240 239 238 238 236 236 236 236 237 237 237 237 237 238 239 240 241 241 242 242 242 242 242 243 243 244 246 248 250 251 252 254 256 258 260
259 256 254 251 250 249 249 247 246 244 243 242 242 241 240 239 238 237 236 235 235 236 237 237 237 237 238 238 239 240 241 241 241 241 242 242 242 243 244 245 247 249 250 251 254 255 256 257 259
260 257 254 251 249 249 249 247 245 244 243 243 242 240 238 238 237 236 236 235 235 235 236 237 237 238 238 238 239 240 241 242 241 241 242 242 242 243 245 245 247 249 251 252 254 255 255 256 258
259 257 255 252 250 249 250 249 246 244 243 242 241 240 238 238 237 236 236 235 235 235 236 237 238 238 239 239 239 240 241 241 242 242 241 242 243 244 245 245 247 249 250 252 253 254 255 256 258
259 259 256 253 252 251 250 250 247 246 243 242 241 240 238 237 236 236 235 235 236 236 236 236 237 238 239 239 240 240 241 241 242 241 241 242 243 243 245 245 247 248 249 251 252 254 255 257 259
261 262 260 256 254 253 251 249 247 246 244 243 241 240 238 237 236 235 234 234 235 236 237 237 237 238 239 239 240 241 240 241 241 241 242 243 244 244 244 246 247 249 250 252 253 254 256 257 260
262 262 261 258 254 253 253 250 247 245 244 244 242 240 239 237 235 234 234 234 235 236 237 237 238 239 239 240 241 242 242 242 242 242 243 244 244 244 245 246 248 250 251 252 254 255 256 258 260
261 260 261 259 256 254 254 252 249 246 244 243 242 240 239 237 236 234 234 234 235 236 237 238 238 239 240 241 242 243 243 243 243 243 244 245 245 246 246 247 248 250 250 252 253 254 256 258 260
261 261 261 259 257 255 254 253 251 246 245 242 241 241 239 238 237 235 234 234 235 235 237 238 239 239 240 241 242 243 244 244 244 243 244 244 245 246 248 248 249 249 250 251 252 253 255 257 259
263 262 261 259 256 254 254 256 252 249 245 242 240 240 239 238 237 236 235 235 235 236 237 238 240 241 241 242 242 243 243 244 244 244 244 244 245 247 248 248 249 250 250 251 252 253 255 256 258
271 267 265 261 258 255 253 255 252 249 245 241 240 239 238 237 237 236 235 235 236 236 237 239 240 241 242 242 242 242 243 244 244 244 244 245 246 247 248 248 249 250 250 251 252 253 254 256 258
276 272 266 263 260 257 254 253 253 250 244 241 240 239 237 237 236 236 236 236 237 237 237 238 239 240 242 242 242 242 244 244 245 245 245 246 246 247 248 248 249 250 250 250 251 253 254 256 258
277 270 266 264 262 259 258 254 252 249 244 241 240 239 238 237 237 237 237 237 238 238 238 238 239 240 241 242 242 243 243 244 245 246 246 246 246 247 246 247 248 249 250 250 251 252 254 256 257
281 272 267 265 261 260 257 256 253 248 245 244 241 240 239 238 238 239 239 238 239 239 240 240 240 240 241 241 242 243 243 244 245 246 246 246 246 246 247 247 247 249 250 251 252 252 254 255 257
279 271 271 270 267 263 257 258 254 249 248 247 244 241 241 241 240 240 239 239 239 239 240 240 240 241 242 242 243 243 244 244 245 246 247 247 246 247 248 249 249 249 250 251 251 253 254 255 256
278 270 270 271 267 265 263 260 257 251 249 249 247 245 243 241 240 240 239 239 239 240 239 240 240 241 242 243 243 243 244 246 247 247 247 248 247 247 248 249 250 250 250 251 252 253 254 255 256
279 271 270 272 268 265 263 262 257 254 251 249 247 246 245 244 241 240 240 240 240 240 240 240 241 242 242 243 243 244 245 247 247 248 248 248 248 248 248 248 249 250 250 251 251 252 253 254 256
278 274 270 271 269 269 268 267 263 260 255 252 250 249 248 246 244 243 242 241 241 242 242 241 242 243 243 243 243 244 245 246 247 248 248 248 248 248 248 248 249 249 250 251 251 252 253 254 256
Height
5801 5802 5803 5804 5805 5806 5808 5812 5813 5815 5817 5819 5820 5822 5824 5826 5828 5831 5831 5833 5835 5837 5839 5840 5842 5844 5845 5847 5848 5849 5851 5852 5853 5854 5855 5857 5858 5859 5860 5861 5863 5864 5865 5866 5867 5867 5868 5869 5869
5795 5796 5798 5799 5799 5801 5805 5807 5809 5811 5812 5814 5816 5818 5820 5822 5823 5825 5827 5829 5832 5834 5836 5837 5839 5841 5842 5844 5846 5847 5848 5850 5851 5852 5853 5855 5856 5858 5859 5860 5861 5862 5863 5864 5865 5866 5867 5868 5868
5789 5790 5791 5792 5794 5797 5800 5802 5804 5805 5807 5809 5811 5813 5815 5817 5819 5822 5823 5825 5828 5830 5832 5834 5836 5838 5839 5841 5843 5844 5846 5847 5849 5850 5851 5853 5854 5856 5857 5858 5859 5861 5862 5863 5864 5865 5866 5867 5867
5783 5783 5784 5786 5788 5792 5794 5796 5798 5799 5801 5803 5806 5808 5810 5813 5815 5818 5819 5821 5824 5826 5828 5830 5832 5834 5836 5838 5840 5841 5843 5845 5846 5848 5849 5850 5852 5853 5855 5856 5857 5859 5860 5861 5862 5863 5864 5865 5866
5774 5775 5776 5778 5782 5786 5788 5790 5792 5793 5795 5798 5800 5802 5805 5808 5810 5812 5814 5817 5819 5822 5824 5826 5828 5830 5832 5834 5836 5838 5840 5842 5843 5845 5846 5848 5849 5851 5852 5854 5855 5856 5857 5859 5860 5861 5862 5863 5864
5766 5767 5768 5771 5775 5779 5781 5782 5785 5786 5788 5790 5793 5795 5798 5801 5804 5807 5809 5811 5814 5817 5820 5821 5824 5826 5828 5830 5832 5834 5836 5838 5840 5842 5843 5845 5846 5848 5849 5851 5852 5854 5855 5856 5858 5859 5860 5861 5862
5757 5757 5759 5763 5766 5770 5772 5774 5776 5778 5780 5783 5785 5788 5791 5795 5798 5800 5803 5806 5809 5812 5814 5817 5819 5821 5824 5826 5828 5830 5832 5835 5837 5838 5840 5842 5843 5845 5847 5848 5850 5851 5852 5854 5855 5856 5857 5858 5859
5746 5747 5749 5753 5756 5760 5763 5765 5768 5770 5772 5775 5777 5780 5784 5788 5791 5794 5796 5800 5803 5806 5808 5811 5814 5816 5819 5821 5824 5826 5828 5830 5833 5835 5837 5838 5840 5842 5843 5845 5847 5848 5849 5851 5852 5853 5854 5856 5857
5734 5735 5737 5743 5746 5750 5752 5755 5758 5760 5762 5766 5768 5772 5776 5780 5784 5787 5790 5793 5796 5799 5802 5805 5808 5811 5814 5816 5819 5821 5823 5826 5828 5830 5832 5835 5837 5838 5840 5842 5843 5845 5846 5847 5849 5850 5851 5852 5853
5722 5723 5728 5733 5735 5737 5740 5744 5747 5749 5752 5756 5759 5762 5767 5771 5775 5779 5782 5786 5789 5793 5796 5799 5802 5805 5808 5811 5813 5816 5818 5821 5823 5825 5828 5830 5832 5834 5836 5838 5839 5841 5842 5844 5845 5847 5848 5849 5850
5710 5712 5717 5720 5722 5725 5728 5732 5736 5739 5741 5745 5750 5753 5758 5763 5767 5770 5774 5778 5782 5786 5789 5792 5796 5799 5802 5805 5807 5810 5813 5815 5818 5820 5822 5824 5827 5829 5831 5833 5835 5837 5839 5840 5842 5843 5844 5845 5846
5698 5701 5704 5707 5709 5712 5715 5719 5723 5727 5732 5735 5739 5744 5748 5753 5757 5762 5766 5770 5774 5778 5781 5785 5788 5792 5795 5798 5801 5804 5807 5809 5812 5814 5816 5819 5821 5824 5826 5829 5831 5833 5834 5836 5838 5839 5840 5842 5842
5686 5689 5691 5694 5697 5699 5702 5706 5711 5716 5720 5724 5728 5733 5738 5743 5748 5753 5757 5761 5766 5770 5773 5777 5781 5785 5788 5791 5794 5797 5800 5803 5806 5808 5810 5813 5816 5818 5821 5823 5825 5828 5829 5831 5833 5835 5836 5837 5838
5675 5677 5679 5682 5685 5687 5690 5694 5698 5704 5708 5712 5717 5723 5728 5733 5738 5743 5748 5752 5757 5761 5765 5769 5773 5777 5781 5784 5787 5790 5793 5796 5799 5801 5804 5806 5809 5812 5815 5818 5820 5822 5824 5826 5828 5830 5831 5833 5834
5663 5665 5667 5670 5673 5676 5679 5682 5686 5692 5696 5701 5706 5712 5717 5722 5727 5733 5738 5743 5748 5752 5756 5760 5765 5769 5772 5776 5779 5783 5786 5789 5792 5795 5797 5800 5803 5806 5809 5811 5814 5816 5818 5821 5823 5824 5826 5827 5829
5651 5653 5655 5659 5661 5664 5668 5671 5677 5680 5685 5690 5695 5700 5706 5712 5717 5723 5728 5733 5738 5743 5747 5751 5756 5760 5764 5768 5771 5775 5778 5781 5784 5787 5790 5793 5796 5799 5802 5805 5808 5810 5812 5815 5817 5818 5820 5821 5823
5641 5643 5645 5649 5651 5653 5656 5660 5666 5669 5673 5679 5684 5689 5695 5701 5707 5712 5718 5724 5729 5733 5738 5742 5746 5751 5755 5759 5763 5767 5770 5773 5777 5780 5783 5786 5790 5792 5795 5798 5801 5804 5806 5808 5810 5812 5814 5815 5817
5633 5635 5636 5639 5641 5643 5646 5649 5654 5658 5662 5668 5673 5679 5684 5690 5697 5702 5708 5714 5718 5723 5728 5732 5737 5741 5745 5749 5753 5758 5762 5765 5769 5772 5776 5779 5782 5785 5788 5791 5794 5797 5799 5801 5803 5805 5807 5809 5811
5625 5626 5627 5630 5632 5634 5636 5639 5644 5647 5652 5657 5662 5668 5674 5680 5686 5692 5698 5703 5709 5713 5718 5722 5727 5731 5735 5739 5744 5748 5752 5756 5760 5764 5768 5771 5775 5778 5781 5784 5787 5789 5792 5794 5796 5798 5800 5802 5804
5616 5617 5618 5620 5622 5624 5626 5629 5634 5638 5642 5647 5652 5657 5663 5669 5675 5681 5687 5693 5699 5704 5708 5712 5717 5721 5725 5730 5734 5739 5742 5746 5750 5754 5758 5762 5766 5769 5772 5776 5779 5781 5784 5787 5789 5791 5793 5795 5796
5607 5608 5610 5612 5613 5615 5617 5620 5623 5628 5631 5636 5641 5647 5652 5658 5664 5671 5677 5683 5688 5693 5698 5703 5707 5711 5715 5720 5724 5729 5732 5736 5740 5745 5749 5752 5756 5760 5763 5767 5770 5773 5776 5778 5781 5783 5785 5787 5788
5600 5601 5602 5603 5605 5606 5609 5610 5614 5617 5621 5626 5632 5637 5642 5648 5654 5660 5666 5672 5678 5683 5688 5692 5697 5701 5705 5710 5714 5719 5723 5727 5731 5735 5739 5742 5746 5750 5754 5757 5761 5764 5766 5769 5772 5774 5777 5778 5780
5594 5594 5595 5596 5597 5599 5601 5602 5605 5607 5610 5616 5622 5627 5633 5638 5644 5650 5655 5661 5667 5672 5677 5682 5686 5691 5695 5700 5704 5708 5713 5717 5721 5725 5728 5732 5736 5740 5743 5747 5750 5754 5757 5760 5762 5765 5767 5769 5771
5588 5589 5589 5589 5589 5590 5593 5594 5596 5599 5603 5608 5613 5618 5623 5628 5634 5639 5645 5651 5657 5662 5666 5671 5676 5680 5685 5690 5694 5698 5703 5707 5711 5714 5718 5722 5726 5730 5733 5737 5740 5744 5747 5750 5753 5755 5757 5760 5762
5583 5583 5583 5582 5582 5583 5586 5587 5590 5592 5596 5599 5604 5609 5614 5619 5624 5630 5635 5641 5646 5651 5656 5661 5665 5670 5675 5679 5684 5688 5692 5696 5700 5704 5708 5712 5716 5719 5722 5726 5729 5733 5736 5739 5742 5745 5747 5750 5752
5578 5578 5578 5577 5577 5579 5580 5580 5584 5587 5589 5592 5596 5601 5606 5611 5616 5621 5625 5630 5636 5641 5646 5650 5655 5659 5664 5668 5673 5677 5681 5685 5689 5693 5697 5701 5705 5708 5711 5715 5718 5722 5725 5728 5731 5734 5737 5739 5741
5573 5573 5573 5573 5573 5573 5574 5576 5579 5581 5584 5586 5589 5593 5598 5602 5606 5611 5615 5620 5625 5630 5634 5639 5643 5648 5652 5657 5661 5666 5670 5674 5678 5682 5685 5689 5693 5696 5700 5703 5707 5710 5714 5717 5720 5723 5726 5728 5731
5570 5569 5569 5569 5568 5568 5570 5571 5573 5575 5577 5580 5583 5586 5589 5593 5597 5601 5605 5609 5613 5618 5622 5626 5631 5636 5641 5645 5650 5654 5658 5662 5666 5670 5673 5677 5681 5685 5688 5692 5695 5698 5702 5705 5708 5712 5714 5717 5719
5565 5565 5564 5564 5564 5564 5564 5568 5567 5569 5572 5574 5576 5579 5581 5585 5588 5591 5595 5599 5602 5606 5610 5614 5618 5623 5628 5633 5637 5641 5645 5649 5654 5657 5661 5665 5668 5672 5676 5680 5683 5686 5690 5693 5696 5700 5702 5705 5708
5560 5560 5560 5560 5560 5560 5560 5564 5562 5563 5565 5567 5569 5571 5573 5576 5578 5582 5585 5589 5592 5596 5600 5603 5607 5611 5616 5620 5624 5629 5633 5637 5641 5645 5648 5652 5656 5660 5663 5667 5671 5674 5678 5681 5684 5687 5690 5693 5696